Terminal Aerodrome Forecast
Issued by NWS Miami, FL

Home | Current Version | Previous Version | Text Only | Print | Product List | Glossary On
Versions: 1 2 3 4 5 6 7 8 9 10 11 12 13 14 15 16 17 18 19 20 21 22 23 24 25 26 27 28 29 30 31 32 33 34 35 36 37 38 39 40 41 42 43 44 45 46 47
000
FTUS42 KMFL 201757 AAA
TAFAPF
TAF AMD
KAPF 201757Z 2018/2118 18007KT P6SM SCT035 SCT250
     FM202100 19008KT P6SM BKN120
     FM210000 VRB03KT P6SM BKN250
     FM211400 10006KT P6SM BKN100
     FM211500 12008KT P6SM BKN050=

USA.gov is the U.S. government's official web portal to all federal, state and local government web resources and services.